GAF920 EDDB-KJFK

Flight info

Callsign GAF920
Flight time N/A
Altitude 43000
Route N0475F280 SUKI3A SUKIP Y206 BUREL P203 HLZ/N0477F400 L980 RKN L602 BERGI DCT RAVLO Y70 OTBED L60 PENIL M144 BAGSO DCT DOGAL/M084F400 DCT 5420N DCT 5330N DCT 5240N DCT 5150N DCT ALLRY/N0485F430 N476B TOPPS DCT ENE PARCH4
Aircraft A359/H-SABDE1E2E3FGHIJ1J2J3J4J5LM1OP2RUWXYZ/LB2D1

Departure

Time 2026-05-01 09:33
Airport Berlin Brandenburg Airport (EDDB)

Arrival

Time N/A
Airport John F. Kennedy International Airport (KJFK)
Time Latitude Longitude Altitude Speed Heading
2026-05-01 08:51 52.38091 13.50907 161 ft 0 kts 58°
2026-05-01 09:25 52.38094 13.50915 161 ft 2 kts 58°
2026-05-01 09:25 52.38105 13.50986 161 ft 5 kts 97°
2026-05-01 09:26 52.38091 13.51060 161 ft 8 kts 109°
2026-05-01 09:26 52.38018 13.51139 161 ft 4 kts 205°
2026-05-01 09:26 52.37993 13.51097 161 ft 6 kts 230°
2026-05-01 09:27 52.37926 13.50995 161 ft 6 kts 173°
2026-05-01 09:27 52.37902 13.51043 161 ft 6 kts 104°
2026-05-01 09:27 52.37901 13.51129 161 ft 9 kts 89°
2026-05-01 09:28 52.37909 13.51255 161 ft 13 kts 77°
2026-05-01 09:28 52.37941 13.51407 161 ft 15 kts 69°
2026-05-01 09:28 52.37981 13.51579 161 ft 18 kts 69°
2026-05-01 09:28 52.38028 13.51776 161 ft 20 kts 69°
2026-05-01 09:29 52.38137 13.52233 161 ft 23 kts 68°
2026-05-01 09:29 52.38192 13.52466 161 ft 17 kts 69°
2026-05-01 09:30 52.38240 13.52699 161 ft 9 kts 96°
2026-05-01 09:30 52.38197 13.52770 161 ft 10 kts 148°
2026-05-01 09:30 52.38044 13.52868 161 ft 14 kts 159°
2026-05-01 09:31 52.37946 13.52931 161 ft 16 kts 158°
2026-05-01 09:31 52.37876 13.52976 161 ft 3 kts 159°
2026-05-01 09:31 52.37819 13.52926 161 ft 0 kts 249°
2026-05-01 09:32 52.37495 13.51565 161 ft 131 kts 248°
2026-05-01 09:32 52.37100 13.49940 449 ft 158 kts 250°
2026-05-01 09:33 52.36696 13.48283 1224 ft 158 kts 251°
2026-05-01 09:33 52.36297 13.46570 1901 ft 166 kts 250°
2026-05-01 09:33 52.35353 13.42552 2638 ft 211 kts 251°
2026-05-01 09:34 52.34811 13.40268 3223 ft 221 kts 250°
2026-05-01 09:34 52.34232 13.37844 3721 ft 236 kts 249°
2026-05-01 09:34 52.33424 13.32500 4924 ft 260 kts 266°
2026-05-01 09:35 52.33329 13.29472 5506 ft 271 kts 269°
2026-05-01 09:35 52.33380 13.23173 7094 ft 283 kts 273°
2026-05-01 09:35 52.33461 13.19977 7886 ft 288 kts 274°
2026-05-01 09:36 52.33551 13.16673 8747 ft 293 kts 274°
2026-05-01 09:36 52.33641 13.13309 9603 ft 299 kts 274°
2026-05-01 09:36 52.33726 13.09884 10437 ft 305 kts 274°
2026-05-01 09:36 52.33807 13.06339 10965 ft 322 kts 273°
2026-05-01 09:37 52.33890 13.02547 11285 ft 346 kts 273°
2026-05-01 09:37 52.34059 12.94252 12149 ft 378 kts 272°
2026-05-01 09:37 52.34141 12.89914 12886 ft 384 kts 272°
2026-05-01 09:38 52.34303 12.81100 14380 ft 396 kts 272°
2026-05-01 09:38 52.34386 12.76577 15078 ft 400 kts 272°
2026-05-01 09:38 52.34468 12.72025 15833 ft 402 kts 273°
2026-05-01 09:39 52.34630 12.62834 17348 ft 407 kts 273°
2026-05-01 09:39 52.34708 12.58186 18094 ft 410 kts 273°
2026-05-01 09:39 52.34786 12.53511 18836 ft 413 kts 273°
2026-05-01 09:40 52.34862 12.48803 19487 ft 416 kts 273°
2026-05-01 09:40 52.35010 12.39307 20809 ft 424 kts 272°
2026-05-01 09:40 52.35081 12.34475 21485 ft 427 kts 272°
2026-05-01 09:41 52.35151 12.29599 22144 ft 431 kts 272°
2026-05-01 09:41 52.35289 12.19725 23442 ft 438 kts 272°
2026-05-01 09:41 52.35356 12.14713 24091 ft 442 kts 272°
2026-05-01 09:42 52.35399 12.11380 24453 ft 444 kts 272°
2026-05-01 09:42 52.35463 12.06314 25007 ft 447 kts 272°
2026-05-01 09:42 52.35605 11.94423 26318 ft 453 kts 272°
2026-05-01 09:43 52.35718 11.84075 27462 ft 458 kts 271°
2026-05-01 09:43 52.35754 11.80551 27824 ft 460 kts 271°
2026-05-01 09:43 52.35804 11.75380 28328 ft 463 kts 271°
2026-05-01 09:44 52.35902 11.64790 29334 ft 469 kts 271°
2026-05-01 09:44 52.35948 11.59435 29830 ft 472 kts 271°
2026-05-01 09:44 52.35992 11.54054 30289 ft 475 kts 271°
2026-05-01 09:45 52.36048 11.46881 30836 ft 478 kts 271°
2026-05-01 09:45 52.36111 11.37739 31530 ft 481 kts 271°
2026-05-01 09:45 52.36145 11.32329 31878 ft 484 kts 271°
2026-05-01 09:46 52.36178 11.26807 32217 ft 486 kts 271°
2026-05-01 09:46 52.36207 11.21264 32551 ft 488 kts 271°
2026-05-01 09:46 52.36234 11.15703 32875 ft 491 kts 271°
2026-05-01 09:46 52.36259 11.10109 33191 ft 493 kts 271°
2026-05-01 09:47 52.36282 11.04487 33499 ft 495 kts 271°
2026-05-01 09:47 52.36330 10.98862 33876 ft 495 kts 274°
2026-05-01 09:47 52.36630 10.93266 34363 ft 492 kts 277°
2026-05-01 09:47 52.37037 10.87742 34844 ft 488 kts 278°
2026-05-01 09:48 52.37486 10.82321 35199 ft 487 kts 279°
2026-05-01 09:48 52.37964 10.76842 35531 ft 486 kts 279°
2026-05-01 09:48 52.38445 10.71375 35860 ft 485 kts 279°
2026-05-01 09:48 52.38923 10.65910 36186 ft 485 kts 279°
2026-05-01 09:49 52.39392 10.60448 36491 ft 484 kts 279°
2026-05-01 09:49 52.39854 10.54993 36793 ft 484 kts 278°
2026-05-01 09:49 52.40309 10.49543 37096 ft 483 kts 278°
2026-05-01 09:49 52.40757 10.44125 37391 ft 482 kts 278°
2026-05-01 09:50 52.41177 10.39010 37719 ft 480 kts 278°
2026-05-01 09:50 52.41612 10.33660 37997 ft 480 kts 278°
2026-05-01 09:50 52.42051 10.28244 38227 ft 480 kts 278°
2026-05-01 09:50 52.42488 10.22824 38480 ft 480 kts 278°
2026-05-01 09:51 52.42923 10.17404 38723 ft 480 kts 278°
2026-05-01 09:51 52.43355 10.11991 38961 ft 479 kts 278°
2026-05-01 09:51 52.43783 10.06595 39189 ft 479 kts 278°
2026-05-01 09:51 52.44208 10.01207 39366 ft 479 kts 278°
2026-05-01 09:52 52.44632 9.95795 39518 ft 479 kts 278°
2026-05-01 09:52 52.45053 9.90388 39688 ft 478 kts 278°
2026-05-01 09:52 52.45472 9.84977 39865 ft 478 kts 278°
2026-05-01 09:52 52.45888 9.79562 40022 ft 478 kts 278°
2026-05-01 09:53 52.46297 9.74226 40170 ft 478 kts 278°
2026-05-01 09:53 52.46707 9.68824 40294 ft 479 kts 278°
2026-05-01 09:53 52.47118 9.63387 40409 ft 480 kts 278°
2026-05-01 09:53 52.47526 9.57960 40427 ft 480 kts 278°
2026-05-01 09:54 52.48333 9.47104 40427 ft 479 kts 278°
2026-05-01 09:54 52.49129 9.36255 40410 ft 479 kts 278°
2026-05-01 09:55 52.49911 9.25467 40408 ft 479 kts 278°
2026-05-01 09:55 52.50688 9.14598 40408 ft 479 kts 278°
2026-05-01 09:56 52.51455 9.03733 40408 ft 479 kts 277°
2026-05-01 09:56 52.52213 8.92861 40407 ft 479 kts 277°
2026-05-01 09:57 52.52950 8.82138 40409 ft 478 kts 278°
2026-05-01 09:57 52.53685 8.71295 40408 ft 478 kts 277°
2026-05-01 09:58 52.54411 8.60436 40403 ft 478 kts 278°
2026-05-01 09:58 52.55126 8.49587 40396 ft 478 kts 277°
2026-05-01 09:59 52.55831 8.38737 40402 ft 476 kts 277°
2026-05-01 09:59 52.56518 8.28002 40401 ft 475 kts 277°
2026-05-01 10:00 52.57201 8.17183 40400 ft 476 kts 277°
2026-05-01 10:00 52.57874 8.06367 40402 ft 475 kts 277°
2026-05-01 10:01 52.58538 7.95548 40391 ft 475 kts 276°
2026-05-01 10:01 52.59185 7.84799 40394 ft 475 kts 277°
2026-05-01 10:02 52.59938 7.74023 40390 ft 474 kts 279°
2026-05-01 10:02 52.60913 7.63287 40388 ft 475 kts 280°
2026-05-01 10:03 52.61903 7.52569 40389 ft 474 kts 279°
2026-05-01 10:03 52.62855 7.41814 40378 ft 475 kts 279°
2026-05-01 10:04 52.63772 7.31114 40373 ft 475 kts 279°
2026-05-01 10:04 52.64682 7.20345 40373 ft 475 kts 278°
2026-05-01 10:05 52.65583 7.09562 40374 ft 475 kts 279°
2026-05-01 10:05 52.66476 6.98780 40368 ft 475 kts 278°
2026-05-01 10:06 52.67354 6.88050 40368 ft 477 kts 278°
2026-05-01 10:06 52.68180 6.77847 40361 ft 476 kts 278°
2026-05-01 10:07 52.69046 6.67026 40360 ft 477 kts 278°
2026-05-01 10:07 52.69903 6.56189 40352 ft 477 kts 278°
2026-05-01 10:08 52.71165 6.39997 40344 ft 477 kts 277°
2026-05-01 10:09 52.71997 6.29143 40343 ft 477 kts 277°
2026-05-01 10:09 52.72819 6.18293 40341 ft 477 kts 277°
2026-05-01 10:10 52.73633 6.07424 40341 ft 477 kts 277°
2026-05-01 10:10 52.74826 5.91220 40338 ft 476 kts 277°
2026-05-01 10:11 52.75614 5.80362 40328 ft 476 kts 276°
2026-05-01 10:11 52.76390 5.69511 40328 ft 476 kts 276°
2026-05-01 10:12 52.77157 5.58655 40328 ft 476 kts 276°
2026-05-01 10:13 52.78283 5.42440 40327 ft 476 kts 276°
2026-05-01 10:13 52.78993 5.32044 40327 ft 476 kts 276°
2026-05-01 10:14 52.80088 5.15739 40319 ft 476 kts 276°
2026-05-01 10:14 52.80802 5.04929 40320 ft 476 kts 275°
2026-05-01 10:15 52.81510 4.94042 40322 ft 477 kts 275°
2026-05-01 10:15 52.82210 4.83119 40319 ft 478 kts 275°
2026-05-01 10:16 52.82901 4.72184 40319 ft 478 kts 275°
2026-05-01 10:17 52.83914 4.55855 40303 ft 478 kts 275°
2026-05-01 10:17 52.84878 4.39954 40297 ft 478 kts 275°
2026-05-01 10:18 52.85851 4.23535 40299 ft 478 kts 275°
2026-05-01 10:19 52.86432 4.13521 40300 ft 478 kts 275°
2026-05-01 10:19 52.87058 4.02588 40300 ft 478 kts 274°
2026-05-01 10:20 52.87981 3.86123 40297 ft 479 kts 274°
2026-05-01 10:20 52.88583 3.75144 40289 ft 479 kts 274°
2026-05-01 10:21 52.89464 3.58738 40281 ft 479 kts 274°
2026-05-01 10:22 52.90326 3.42271 40276 ft 478 kts 274°
2026-05-01 10:23 52.91163 3.25821 40273 ft 477 kts 273°
2026-05-01 10:23 52.92431 3.09528 40276 ft 479 kts 280°
2026-05-01 10:24 52.95241 2.87949 40282 ft 479 kts 281°
2026-05-01 10:25 52.98051 2.66442 40279 ft 478 kts 281°
2026-05-01 10:26 52.99436 2.55644 40274 ft 479 kts 281°
2026-05-01 10:27 53.02167 2.34107 40268 ft 478 kts 280°
2026-05-01 10:28 53.04195 2.17892 40264 ft 478 kts 280°
2026-05-01 10:28 53.06199 2.01665 40265 ft 478 kts 279°
2026-05-01 10:29 53.08175 1.85485 40257 ft 478 kts 279°
2026-05-01 10:30 53.10791 1.63769 40255 ft 478 kts 279°
2026-05-01 10:31 53.13357 1.42106 40235 ft 480 kts 279°
2026-05-01 10:32 53.15269 1.25723 40238 ft 481 kts 279°
2026-05-01 10:33 53.17785 1.03843 40229 ft 481 kts 279°
2026-05-01 10:34 53.19641 0.87461 40217 ft 483 kts 278°
2026-05-01 10:34 53.20876 0.76446 40210 ft 483 kts 278°
2026-05-01 10:35 53.22709 0.59911 40199 ft 483 kts 278°
2026-05-01 10:35 53.23923 0.48878 40206 ft 483 kts 278°
2026-05-01 10:36 53.25710 0.32402 40207 ft 483 kts 278°
2026-05-01 10:37 53.26888 0.21362 40207 ft 482 kts 278°
2026-05-01 10:37 53.28638 0.04813 40200 ft 482 kts 278°
2026-05-01 10:38 53.29793 -0.06156 40190 ft 482 kts 277°
2026-05-01 10:38 53.30934 -0.17201 40187 ft 482 kts 277°
2026-05-01 10:39 53.32066 -0.28262 40191 ft 482 kts 277°
2026-05-01 10:39 53.33190 -0.39323 40195 ft 482 kts 277°
2026-05-01 10:40 53.34297 -0.50320 40186 ft 482 kts 277°
2026-05-01 10:40 53.35401 -0.61391 40185 ft 482 kts 277°
2026-05-01 10:41 53.36500 -0.72465 40182 ft 482 kts 277°
2026-05-01 10:42 53.38122 -0.89087 40182 ft 482 kts 276°
2026-05-01 10:42 53.39187 -1.00102 40179 ft 482 kts 276°
2026-05-01 10:43 53.40252 -1.11194 40175 ft 482 kts 276°
2026-05-01 10:43 53.41296 -1.22296 40174 ft 482 kts 276°
2026-05-01 10:44 53.42336 -1.33408 40173 ft 482 kts 276°
2026-05-01 10:44 53.43358 -1.44523 40164 ft 482 kts 276°
2026-05-01 10:45 53.44367 -1.55596 40174 ft 482 kts 276°
2026-05-01 10:45 53.45368 -1.66641 40160 ft 482 kts 276°
2026-05-01 10:46 53.46363 -1.77773 40162 ft 482 kts 276°
2026-05-01 10:46 53.47352 -1.88900 40152 ft 482 kts 276°
2026-05-01 10:47 53.48324 -2.00013 40153 ft 482 kts 276°
2026-05-01 10:47 53.49284 -2.11146 40153 ft 482 kts 276°
2026-05-01 10:48 53.50234 -2.22207 40142 ft 482 kts 276°
2026-05-01 10:48 53.51178 -2.33350 40144 ft 482 kts 275°
2026-05-01 10:49 53.52108 -2.44497 40142 ft 482 kts 275°
2026-05-01 10:49 53.53030 -2.55644 40146 ft 482 kts 275°
2026-05-01 10:50 53.53941 -2.66795 40149 ft 482 kts 275°
2026-05-01 10:50 53.54842 -2.77946 40149 ft 482 kts 275°
2026-05-01 10:51 53.55728 -2.89032 40156 ft 481 kts 275°
2026-05-01 10:51 53.56609 -3.00196 40157 ft 481 kts 275°
2026-05-01 10:52 53.57475 -3.11315 40172 ft 481 kts 275°
2026-05-01 10:52 53.58335 -3.22487 40156 ft 482 kts 275°
2026-05-01 10:53 53.59058 -3.31992 40156 ft 482 kts 274°
2026-05-01 10:53 53.59823 -3.42167 40155 ft 482 kts 274°
2026-05-01 10:54 53.60520 -3.51542 40155 ft 482 kts 274°
2026-05-01 10:54 53.61260 -3.61600 40154 ft 481 kts 274°
2026-05-01 10:55 53.61999 -3.72518 40157 ft 481 kts 272°
2026-05-01 10:55 53.62428 -3.83444 40159 ft 481 kts 270°
2026-05-01 10:56 53.62800 -3.94474 40151 ft 481 kts 270°
2026-05-01 10:56 53.63182 -4.04757 40150 ft 481 kts 271°
2026-05-01 10:57 53.63575 -4.14987 40153 ft 481 kts 271°
2026-05-01 10:57 53.64000 -4.26161 40154 ft 481 kts 270°
2026-05-01 10:58 53.64418 -4.37416 40151 ft 481 kts 270°
2026-05-01 10:58 53.64828 -4.48662 40151 ft 482 kts 270°
2026-05-01 10:59 53.65225 -4.59933 40155 ft 481 kts 270°
2026-05-01 10:59 53.65607 -4.71191 40159 ft 481 kts 270°
2026-05-01 11:00 53.65980 -4.82465 40156 ft 482 kts 270°
2026-05-01 11:00 53.66352 -4.93677 40158 ft 482 kts 270°
2026-05-01 11:01 53.66710 -5.04970 40155 ft 482 kts 270°
2026-05-01 11:01 53.67058 -5.16262 40153 ft 482 kts 270°
2026-05-01 11:02 53.67393 -5.27555 40145 ft 482 kts 269°
2026-05-01 11:02 53.67706 -5.38801 40145 ft 483 kts 269°
2026-05-01 11:03 53.68012 -5.50119 40145 ft 483 kts 269°
2026-05-01 11:03 53.68626 -5.61441 40145 ft 486 kts 274°
2026-05-01 11:04 53.69558 -5.72731 40138 ft 486 kts 275°
2026-05-01 11:04 53.70453 -5.84027 40129 ft 486 kts 274°
2026-05-01 11:05 53.71269 -5.95268 40133 ft 485 kts 273°
2026-05-01 11:05 53.72052 -6.06583 40117 ft 485 kts 273°
2026-05-01 11:06 53.72822 -6.17901 40116 ft 485 kts 273°
2026-05-01 11:06 53.73584 -6.29229 40111 ft 485 kts 273°
2026-05-01 11:07 53.74705 -6.46167 40106 ft 486 kts 272°
2026-05-01 11:07 53.75443 -6.57517 40105 ft 486 kts 272°
2026-05-01 11:08 53.76173 -6.68882 40101 ft 486 kts 272°
2026-05-01 11:09 53.77245 -6.85934 40102 ft 486 kts 272°
2026-05-01 11:09 53.77941 -6.97243 40095 ft 487 kts 272°
2026-05-01 11:10 53.78975 -7.14334 40093 ft 487 kts 272°
2026-05-01 11:10 53.79651 -7.25734 40093 ft 487 kts 272°
2026-05-01 11:11 53.80315 -7.37141 40098 ft 487 kts 272°
2026-05-01 11:11 53.80965 -7.48495 40094 ft 489 kts 272°
2026-05-01 11:12 53.81611 -7.59952 40088 ft 489 kts 272°
2026-05-01 11:12 53.82246 -7.71416 40086 ft 489 kts 272°
2026-05-01 11:13 53.82870 -7.82875 40085 ft 489 kts 272°
2026-05-01 11:13 53.83483 -7.94347 40088 ft 490 kts 272°
2026-05-01 11:14 53.84081 -8.05766 40069 ft 491 kts 271°
2026-05-01 11:14 53.84674 -8.17278 40080 ft 491 kts 271°
2026-05-01 11:15 53.85257 -8.28791 40087 ft 491 kts 271°
2026-05-01 11:15 53.85828 -8.40311 40096 ft 491 kts 271°
2026-05-01 11:16 53.86383 -8.51764 40072 ft 492 kts 271°
2026-05-01 11:16 53.86934 -8.63339 40074 ft 493 kts 271°
2026-05-01 11:17 53.87474 -8.74904 40076 ft 493 kts 271°
2026-05-01 11:17 53.88000 -8.86406 40075 ft 493 kts 271°
2026-05-01 11:18 53.88517 -8.97989 40079 ft 493 kts 271°
2026-05-01 11:18 53.89024 -9.09585 40075 ft 494 kts 271°
2026-05-01 11:19 53.89520 -9.21202 40073 ft 494 kts 271°
2026-05-01 11:19 53.90005 -9.32818 40073 ft 494 kts 271°
2026-05-01 11:20 53.90477 -9.44362 40074 ft 494 kts 271°
2026-05-01 11:20 53.90940 -9.55987 40078 ft 494 kts 271°
2026-05-01 11:21 53.91391 -9.67620 40081 ft 495 kts 271°
2026-05-01 11:21 53.91832 -9.79262 40083 ft 495 kts 271°
2026-05-01 11:22 53.92259 -9.90830 40086 ft 495 kts 271°
2026-05-01 11:22 53.92678 -10.02481 40100 ft 495 kts 271°
2026-05-01 11:23 53.93086 -10.14139 40084 ft 495 kts 271°
2026-05-01 11:23 53.93482 -10.25804 40083 ft 495 kts 271°
2026-05-01 11:24 53.93865 -10.37390 40077 ft 495 kts 271°
2026-05-01 11:25 53.94413 -10.54613 40080 ft 495 kts 271°
2026-05-01 11:25 53.94941 -10.71987 40075 ft 496 kts 271°
2026-05-01 11:26 53.95445 -10.89449 40072 ft 496 kts 271°
2026-05-01 11:27 53.95770 -11.01145 40070 ft 496 kts 270°
2026-05-01 11:27 53.96082 -11.12838 40069 ft 496 kts 271°
2026-05-01 11:28 53.96383 -11.24533 40064 ft 496 kts 270°
2026-05-01 11:28 53.96671 -11.36140 40064 ft 496 kts 270°
2026-05-01 11:29 53.97084 -11.53687 40059 ft 496 kts 270°
2026-05-01 11:30 53.97472 -11.71246 40058 ft 496 kts 270°
2026-05-01 11:30 53.97715 -11.82876 40058 ft 496 kts 270°
2026-05-01 11:31 53.97948 -11.94585 40057 ft 496 kts 270°
2026-05-01 11:31 53.98170 -12.06291 40055 ft 496 kts 270°
2026-05-01 11:32 53.98380 -12.18004 40064 ft 496 kts 270°
2026-05-01 11:32 53.98578 -12.29638 40054 ft 496 kts 270°
2026-05-01 11:33 53.98766 -12.41367 40054 ft 497 kts 270°
2026-05-01 11:33 53.98943 -12.53104 40056 ft 497 kts 270°
2026-05-01 11:34 53.99108 -12.64840 40059 ft 497 kts 270°
2026-05-01 11:34 53.99261 -12.76495 40066 ft 497 kts 270°
2026-05-01 11:35 53.99403 -12.88248 40064 ft 498 kts 270°
2026-05-01 11:35 53.99534 -13.00022 40064 ft 498 kts 270°
2026-05-01 11:36 53.99655 -13.11796 40067 ft 498 kts 269°
2026-05-01 11:36 53.99762 -13.23489 40072 ft 498 kts 270°
2026-05-01 11:37 53.99859 -13.35263 40073 ft 499 kts 270°
2026-05-01 11:37 53.99944 -13.47046 40085 ft 498 kts 270°
2026-05-01 11:38 54.00018 -13.58838 40087 ft 500 kts 270°
2026-05-01 11:38 54.00081 -13.70565 40083 ft 499 kts 270°
2026-05-01 11:39 54.00132 -13.82358 40093 ft 500 kts 270°
2026-05-01 11:39 54.00171 -13.94180 40098 ft 500 kts 270°
2026-05-01 11:40 54.00199 -14.06000 40102 ft 500 kts 270°
2026-05-01 11:40 54.00215 -14.17730 40110 ft 500 kts 270°
2026-05-01 11:41 54.00220 -14.29545 40117 ft 500 kts 270°
2026-05-01 11:41 54.00213 -14.41363 40117 ft 501 kts 270°
2026-05-01 11:42 54.00195 -14.53230 40130 ft 503 kts 270°
2026-05-01 11:42 54.00165 -14.65107 40130 ft 503 kts 269°
2026-05-01 11:43 54.00123 -14.76915 40131 ft 503 kts 269°
2026-05-01 11:43 54.00070 -14.88795 40132 ft 503 kts 269°
2026-05-01 11:44 54.00023 -15.06568 40144 ft 500 kts 271°
2026-05-01 11:44 54.00278 -15.18378 40155 ft 500 kts 272°
2026-05-01 11:45 54.00567 -15.30098 40154 ft 500 kts 272°
2026-05-01 11:45 54.00807 -15.41907 40163 ft 500 kts 272°
2026-05-01 11:46 54.01008 -15.53689 40161 ft 496 kts 272°
2026-05-01 11:46 54.01190 -15.65381 40168 ft 494 kts 272°
2026-05-01 11:47 54.01361 -15.77046 40176 ft 494 kts 272°
2026-05-01 11:47 54.01521 -15.88636 40181 ft 494 kts 272°
2026-05-01 11:48 54.01672 -16.00308 40183 ft 494 kts 272°
2026-05-01 11:48 54.01811 -16.11959 40187 ft 492 kts 272°
2026-05-01 11:49 54.01939 -16.23590 40186 ft 492 kts 272°
2026-05-01 11:49 54.02054 -16.35138 40186 ft 492 kts 272°
2026-05-01 11:50 54.02159 -16.46761 40192 ft 492 kts 272°
2026-05-01 11:50 54.02254 -16.58390 40194 ft 492 kts 272°
2026-05-01 11:51 54.02336 -16.70019 40200 ft 492 kts 272°
2026-05-01 11:51 54.02408 -16.81567 40200 ft 492 kts 271°
2026-05-01 11:52 54.02468 -16.93193 40205 ft 492 kts 272°
2026-05-01 11:52 54.02517 -17.04826 40205 ft 492 kts 271°
2026-05-01 11:53 54.02554 -17.16443 40207 ft 491 kts 272°
2026-05-01 11:53 54.02581 -17.28044 40211 ft 490 kts 272°
2026-05-01 11:54 54.02597 -17.39537 40217 ft 489 kts 272°
2026-05-01 11:54 54.02602 -17.51092 40217 ft 489 kts 272°
2026-05-01 11:55 54.02595 -17.62649 40222 ft 489 kts 271°
2026-05-01 11:55 54.02577 -17.74202 40221 ft 489 kts 271°
2026-05-01 11:56 54.02549 -17.85682 40225 ft 489 kts 271°
2026-05-01 11:56 54.02509 -17.97237 40231 ft 489 kts 271°
2026-05-01 11:57 54.02468 -18.06847 40233 ft 489 kts 271°
2026-05-01 11:57 54.02396 -18.20349 40223 ft 489 kts 271°
2026-05-01 11:58 54.02324 -18.31840 40236 ft 490 kts 271°
2026-05-01 11:59 54.02194 -18.49219 40238 ft 490 kts 271°
2026-05-01 11:59 54.02092 -18.60809 40238 ft 490 kts 271°
2026-05-01 12:00 54.01920 -18.78195 40243 ft 490 kts 270°
2026-05-01 12:01 54.01723 -18.95478 40251 ft 489 kts 271°
2026-05-01 12:01 54.01578 -19.07027 40248 ft 487 kts 270°
2026-05-01 12:02 54.01423 -19.18518 40255 ft 486 kts 270°
2026-05-01 12:02 54.01369 -19.22320 40255 ft 486 kts 270°